Temperature
25 23 23 23 24 25 24 24 24 24 24 24 23 22 22 22 22 21 21 21 21 22 22 22 21 21 21 20 20 20 20 20 19 19 19 19 19 19 19 18 18 18 18 18
23 23 24 24 24 25 25 24 24 24 24 24 23 22 22 22 21 22 21 21 22 22 22 22 21 21 21 21 21 20 20 20 20 19 19 19 19 19 19 18 18 18 18 18
24 24 24 25 25 25 24 24 24 24 24 23 23 22 22 22 22 22 22 22 22 22 22 22 22 22 22 21 21 21 20 20 20 19 19 19 19 19 18 18 18 18 18 18
24 24 25 25 25 25 24 25 24 24 23 22 23 22 22 21 21 21 22 22 23 23 23 23 23 22 22 22 22 21 21 20 20 19 19 19 19 19 19 18 18 18 18 18
24 25 25 25 25 25 24 24 24 23 22 21 22 22 21 21 21 21 22 22 23 23 23 23 23 23 23 22 22 22 21 20 20 20 19 19 19 19 19 18 18 18 18 18
23 24 25 25 25 25 24 23 21 19 20 21 22 22 22 20 21 21 22 22 23 23 23 23 23 23 23 22 22 22 21 21 20 20 19 19 19 19 19 19 18 18 18 18
24 24 24 25 25 24 23 21 21 22 20 21 21 21 21 21 22 22 22 23 23 23 23 23 23 23 23 23 22 22 21 21 20 20 20 19 19 19 19 18 18 18 18 18
22 22 24 25 25 23 22 21 21 22 21 20 21 21 22 22 23 23 23 24 24 24 23 23 23 23 23 23 22 22 21 21 20 20 20 19 19 19 19 18 18 18 18 18
20 22 23 24 24 23 22 21 20 19 20 21 20 21 22 22 22 22 23 23 23 24 24 23 23 23 23 23 23 22 22 21 21 20 20 20 19 19 19 18 18 18 18 18
20 22 23 23 24 22 22 19 18 18 20 21 22 22 21 23 22 21 21 22 23 24 23 23 23 24 24 23 23 22 22 21 21 21 20 20 20 19 19 18 18 18 18 17
20 21 22 22 23 23 21 20 17 16 18 19 21 21 22 21 21 21 21 23 24 24 24 24 24 24 23 23 23 22 22 21 21 20 20 20 19 19 19 18 18 18 18 17
18 17 19 21 22 22 22 20 18 20 19 17 19 21 22 21 21 21 22 23 24 24 24 24 24 23 23 23 23 22 22 21 21 20 20 20 19 19 19 18 18 18 17 17
18 17 19 20 21 21 21 20 19 17 16 16 19 21 21 21 21 22 22 23 24 24 24 23 23 23 23 23 22 22 21 21 20 20 19 19 19 19 18 18 18 18 17 17
18 16 18 19 20 20 21 20 19 18 18 18 19 21 21 21 21 21 22 23 23 23 23 23 23 23 22 22 22 21 21 21 20 20 19 19 19 19 18 18 18 17 17 17
17 17 18 19 20 20 22 21 20 20 19 19 20 20 21 21 21 22 22 22 22 23 23 23 22 22 22 22 21 21 21 20 20 20 19 19 18 18 18 18 17 17 17 17
15 17 18 20 20 21 22 22 21 21 20 20 21 21 20 21 22 22 22 22 22 22 23 22 22 22 22 21 21 21 21 20 20 19 19 19 18 18 18 18 17 17 17 16
14 16 17 18 19 21 21 21 21 21 21 20 21 21 20 20 20 21 22 22 22 23 23 23 22 22 22 21 21 21 20 20 19 19 19 18 18 18 17 17 17 16 16 16
14 14 14 16 19 20 20 20 21 21 21 20 21 20 20 20 22 22 23 23 23 23 23 23 22 22 21 21 21 21 20 19 19 19 18 18 18 17 17 17 16 16 16 16
13 14 13 14 17 18 20 21 20 20 21 20 19 19 20 20 21 21 22 23 24 24 23 23 22 22 21 21 20 20 19 19 19 18 18 18 18 17 17 16 16 16 16 15
12 13 13 14 17 18 19 20 21 20 20 19 19 18 18 19 19 20 22 22 23 23 23 22 22 21 21 21 20 20 19 19 19 18 18 18 17 17 16 16 16 15 15 15
14 13 14 15 16 17 18 19 20 20 20 20 19 19 19 19 21 22 22 22 23 23 22 22 21 21 21 20 20 19 19 19 18 18 17 17 17 16 16 16 15 15 15 15
14 14 13 13 16 17 18 18 18 18 19 19 19 19 19 20 21 21 22 22 22 22 22 21 21 20 20 20 20 19 19 18 18 17 17 17 16 16 16 16 15 15 15 15
13 13 13 14 15 16 17 17 18 19 18 19 19 20 20 20 20 20 21 21 21 21 21 21 20 20 19 19 19 19 19 18 18 17 17 16 16 16 15 15 15 15 15 14
13 12 12 13 14 15 17 17 18 19 19 19 19 20 20 20 20 20 20 20 20 20 20 20 20 19 19 18 18 18 18 18 18 17 17 16 16 15 15 15 15 15 14 14
13 13 13 13 14 15 17 17 18 18 18 19 19 19 20 20 20 20 20 20 20 19 20 20 19 19 18 18 18 18 18 17 17 17 16 16 15 15 15 14 14 14 14 14
12 12 13 13 14 14 15 17 17 18 18 18 19 19 19 19 19 19 19 19 19 19 19 19 18 18 18 18 17 17 17 17 17 16 16 15 15 14 14 14 13 13 13 13
Wind_Speed
5 6 4 7 7 7 7 5 4 4 4 5 5 4 6 8 7 8 8 8 8 9 6 5 6 6 6 5 5 5 5 4 4 2 2 2 1 0 0 1 1 2 2 2
6 1 5 6 5 6 6 5 2 0 2 4 2 3 4 7 9 8 9 9 9 8 6 6 6 6 7 7 6 5 5 5 4 3 2 2 2 1 1 1 1 1 2 2
5 4 4 6 5 6 4 6 5 3 3 4 4 4 1 3 4 5 6 7 8 10 10 9 8 7 7 7 7 7 5 5 4 4 3 2 2 2 1 1 1 1 1 1
2 3 4 4 4 7 4 5 6 6 6 0 3 2 6 4 5 7 9 8 9 9 9 8 9 8 8 8 7 6 6 5 4 4 4 4 3 2 1 1 0 1 1 1
2 2 3 4 4 7 5 3 5 5 5 3 2 2 7 1 6 10 11 10 10 9 9 9 10 9 8 7 7 7 6 5 5 5 5 4 3 2 1 1 1 0 0 0
3 2 3 4 2 5 7 8 8 7 5 1 3 4 6 5 8 8 9 10 10 9 8 8 7 7 6 6 6 7 6 5 5 5 5 5 4 3 2 1 1 0 0 0
2 3 2 2 4 4 6 7 4 4 3 5 2 3 9 8 9 10 10 10 9 8 8 8 8 8 8 8 8 7 7 6 5 6 5 5 5 4 3 2 2 1 0 1
3 4 3 2 5 6 5 9 8 6 6 4 1 5 8 6 6 5 6 6 7 8 8 8 9 8 8 9 9 8 8 7 6 6 5 4 4 3 2 3 2 2 2 2
6 5 5 2 2 9 7 4 7 8 4 1 5 7 8 2 1 1 4 5 7 8 8 8 8 8 8 8 9 9 9 7 6 6 5 4 4 3 3 2 2 1 1 1
8 3 4 3 5 5 6 9 7 7 6 3 5 5 5 6 5 3 5 7 7 6 6 6 7 7 7 7 7 8 8 7 6 5 5 4 4 3 3 2 2 1 1 1
5 4 3 2 3 5 5 5 6 6 6 7 4 7 7 9 8 8 9 8 8 7 7 7 6 5 6 6 7 7 7 7 6 6 5 4 4 3 3 2 1 1 1 2
4 5 2 5 4 2 5 7 8 6 4 5 5 8 6 7 7 8 8 7 7 7 6 6 6 6 6 7 7 7 7 7 7 6 5 4 4 4 3 2 2 2 3 3
5 6 3 5 5 2 3 4 4 6 6 6 5 8 4 2 2 5 7 7 6 6 6 6 6 6 6 7 7 7 7 7 7 7 7 5 4 4 3 3 3 4 4 4
5 5 7 9 7 4 3 3 4 6 5 6 8 8 7 4 4 5 5 6 6 6 7 7 7 6 7 7 7 7 7 8 8 8 7 6 5 4 4 4 4 5 5 5
5 4 4 5 5 4 5 6 6 6 9 9 9 9 11 9 8 7 6 6 7 7 7 7 7 7 7 7 7 7 7 8 8 8 8 6 6 5 6 6 6 6 6 5
4 4 3 2 3 4 4 6 8 7 6 7 5 9 8 5 3 5 7 9 9 9 8 8 8 9 9 9 9 8 8 8 9 9 8 7 7 7 6 6 6 6 6 5
3 5 4 3 3 0 5 7 7 5 6 8 9 10 4 4 8 10 10 10 11 10 10 10 10 10 10 10 10 10 9 9 9 9 8 8 8 7 6 7 7 6 6 6
6 5 4 3 2 6 9 4 5 6 6 7 6 6 7 8 6 5 7 9 9 9 9 9 9 8 8 7 8 9 9 9 9 9 8 8 8 8 7 7 7 6 5 5
6 7 5 4 4 6 7 3 4 4 4 3 5 4 2 1 2 1 3 6 8 8 8 8 9 9 9 10 10 10 9 9 9 9 8 8 9 9 8 7 6 5 6 6
4 5 6 5 5 7 8 5 2 3 3 3 3 4 3 4 3 6 5 5 5 6 6 7 8 9 10 10 11 11 10 9 8 8 8 8 8 9 8 7 6 5 6 6
4 3 4 4 4 7 7 5 1 4 7 4 4 5 6 6 6 5 4 4 5 6 7 8 9 9 10 11 11 11 10 9 8 8 8 8 7 8 8 7 6 7 7 6
4 4 4 5 4 6 4 1 3 6 4 3 4 5 5 4 2 2 4 5 7 7 8 9 9 8 9 11 12 11 10 8 9 10 9 9 8 8 8 9 7 6 7 7
4 6 6 7 7 5 2 4 4 3 3 4 4 4 4 3 3 3 4 6 7 8 8 8 9 10 8 8 10 11 10 10 11 11 10 9 9 8 8 8 8 6 5 5
2 1 2 2 5 5 5 4 4 4 4 5 4 4 3 4 4 4 4 5 6 6 8 8 11 10 8 7 8 9 10 11 12 11 10 9 9 8 7 6 6 6 5 5
4 1 1 3 5 5 4 4 5 4 3 2 2 1 3 5 5 5 5 6 7 6 6 8 10 10 9 8 8 9 11 11 12 11 10 9 8 8 7 5 4 5 3 4
4 5 4 5 5 3 6 6 5 4 4 2 1 1 1 4 5 4 4 4 6 7 7 8 9 10 9 9 9 9 9 11 12 10 9 8 7 7 7 7 6 8 5 5
Wind_Direction
40 85 152 186 178 160 150 148 178 219 196 158 196 215 199 189 196 202 201 199 205 217 217 193 188 178 167 170 178 181 175 171 147 133 138 130 152 144 85 171 204 200 188 180
52 152 201 158 143 124 133 137 174 260 141 150 183 248 212 193 201 201 200 204 206 210 205 196 189 181 177 182 186 186 186 178 173 161 150 150 145 143 135 59 35 211 197 202
158 209 154 138 143 139 163 172 179 159 81 67 92 344 244 221 207 209 205 205 208 206 205 200 194 191 185 187 187 190 191 190 186 164 128 103 79 54 59 40 20 6 164 169
194 234 154 147 169 150 211 207 164 141 117 150 123 251 272 233 227 222 220 211 214 214 207 199 196 195 194 193 183 179 181 187 183 163 163 164 167 184 210 174 144 9 69 106
221 184 138 168 200 162 188 117 115 115 118 82 51 151 282 220 231 233 224 216 215 209 201 199 200 198 196 185 178 179 178 185 181 173 176 174 182 188 168 125 137 62 48 114
234 250 196 190 144 139 127 79 61 51 73 100 221 168 267 227 221 228 221 216 212 202 195 196 192 182 181 172 173 172 171 182 181 176 177 182 192 191 157 152 171 207 322 332
330 317 291 154 107 56 101 98 55 20 15 246 251 191 248 245 229 217 213 209 204 190 184 185 180 179 179 176 177 173 173 185 183 177 183 190 194 187 189 200 199 197 222 275
155 278 262 190 166 162 158 138 154 180 206 262 292 228 251 263 251 221 201 186 177 177 180 182 184 183 184 183 179 175 178 189 186 183 187 186 183 180 188 194 191 198 223 240
165 240 291 257 174 137 132 146 151 128 143 154 273 282 299 302 336 170 178 170 178 181 180 181 180 180 182 181 183 181 180 182 183 181 172 167 171 175 186 187 178 198 232 217
147 195 293 308 76 38 130 138 104 120 142 219 284 269 245 250 239 211 195 192 190 179 174 177 179 179 179 180 177 172 172 175 173 168 167 166 165 171 169 158 177 179 194 134
126 143 313 28 154 163 100 95 104 112 144 154 221 264 229 222 219 209 208 201 190 183 180 181 180 175 166 161 163 165 164 159 159 160 157 153 151 144 137 136 153 152 130 114
131 124 217 265 272 190 149 157 146 149 190 169 175 260 271 235 225 209 204 196 188 181 174 171 165 155 153 158 160 163 163 161 161 155 148 146 135 130 127 127 123 109 102 96
132 117 93 347 345 20 106 130 134 122 120 152 173 257 304 299 225 206 193 189 179 171 163 158 153 155 160 161 160 161 160 158 151 144 142 136 134 133 132 126 112 101 98 92
125 122 164 190 211 194 182 174 154 130 151 191 216 242 284 276 236 221 197 184 173 169 168 162 159 161 160 159 159 157 155 151 146 143 141 140 142 138 127 115 107 100 97 93
110 152 190 212 220 192 197 197 187 185 185 188 224 227 244 236 222 212 192 175 171 174 171 167 166 164 158 155 155 154 150 147 146 143 142 145 136 126 117 109 103 99 95 93
81 141 151 224 242 221 229 213 202 208 194 211 228 249 248 238 201 195 188 182 185 186 181 176 170 168 167 165 161 155 152 149 145 144 144 139 130 126 122 115 108 101 94 89
119 124 132 221 280 55 249 218 199 207 200 183 211 236 232 210 202 202 196 191 195 192 185 181 179 177 174 169 163 159 153 143 141 141 141 139 135 129 125 121 112 106 99 94
149 131 138 160 126 218 242 244 199 199 222 213 224 235 213 214 211 206 192 189 191 185 183 181 174 167 161 154 149 143 140 141 141 141 142 141 138 132 124 117 114 109 104 100
164 144 134 141 180 259 289 254 179 185 238 221 216 235 240 141 77 301 212 187 190 186 181 178 170 160 152 148 144 139 140 142 144 148 150 149 144 136 129 125 121 115 108 97
87 115 129 141 163 217 243 265 237 143 249 247 192 198 175 127 166 243 216 178 175 168 164 161 154 148 148 147 143 142 145 149 155 154 149 144 140 136 134 130 124 113 110 105
72 77 134 161 195 248 256 284 99 155 237 256 213 209 186 191 219 227 179 169 160 156 153 151 151 155 153 146 144 146 150 160 154 140 134 130 130 131 129 122 120 120 118 112
167 153 170 154 178 242 282 61 169 228 267 249 228 217 209 223 235 172 161 159 151 146 146 147 151 153 149 151 150 152 160 153 138 135 134 131 128 128 128 123 119 118 122 120
193 192 188 189 210 240 271 242 265 252 262 255 233 238 204 191 193 168 163 158 156 154 152 149 148 145 144 154 156 156 154 143 138 136 135 131 125 121 130 130 129 124 123 127
272 179 174 247 268 280 287 285 295 273 265 269 255 242 191 184 173 161 160 157 152 151 151 147 144 145 148 155 151 148 145 145 141 140 139 137 134 129 121 121 128 132 143 145
243 219 204 266 286 311 314 309 305 315 322 321 313 251 180 160 168 169 169 160 153 148 146 146 148 150 150 148 142 142 145 145 142 141 141 139 137 133 126 116 114 132 139 162
218 200 197 234 238 237 275 292 305 317 313 312 340 19 103 155 160 157 161 156 148 145 141 140 141 142 145 145 143 146 149 148 145 145 147 147 144 140 138 129 100 69 87 105
Height
1491 1498 1506 1504 1503 1505 1510 1517 1521 1518 1512 1516 1521 1521 1520 1520 1522 1523 1524 1526 1528 1530 1532 1534 1536 1538 1540 1541 1543 1544 1546 1547 1548 1549 1550 1551 1551 1552 1553 1553 1553 1553 1553 1553
1499 1503 1498 1498 1501 1504 1509 1516 1519 1515 1512 1516 1521 1522 1519 1519 1520 1520 1522 1524 1526 1528 1530 1533 1535 1537 1538 1540 1542 1544 1545 1547 1548 1549 1550 1551 1552 1552 1553 1553 1553 1553 1553 1553
1499 1499 1495 1498 1503 1508 1511 1514 1516 1517 1516 1517 1522 1527 1522 1519 1519 1521 1522 1523 1524 1526 1527 1530 1533 1535 1537 1539 1540 1542 1545 1546 1547 1549 1549 1550 1551 1551 1552 1552 1552 1553 1552 1552
1496 1494 1495 1499 1503 1505 1514 1506 1509 1514 1524 1532 1527 1543 1527 1521 1520 1519 1519 1520 1521 1523 1525 1528 1530 1532 1534 1537 1539 1541 1543 1545 1546 1548 1548 1549 1549 1550 1551 1552 1552 1552 1552 1552
1497 1493 1495 1499 1499 1500 1505 1503 1509 1515 1525 1534 1532 1541 1533 1522 1522 1517 1515 1516 1517 1520 1522 1525 1527 1530 1532 1535 1537 1539 1541 1543 1545 1546 1547 1548 1549 1549 1550 1550 1551 1551 1551 1551
1493 1491 1491 1493 1494 1496 1500 1508 1517 1526 1533 1546 1536 1541 1537 1524 1516 1510 1509 1511 1513 1516 1519 1522 1525 1527 1530 1533 1535 1537 1539 1541 1543 1544 1545 1546 1547 1548 1548 1549 1549 1549 1549 1549
1498 1493 1490 1490 1496 1499 1503 1521 1543 1547 1556 1552 1536 1537 1531 1510 1504 1503 1504 1507 1510 1513 1517 1520 1522 1524 1527 1529 1532 1535 1537 1539 1540 1542 1543 1545 1546 1546 1547 1547 1547 1547 1548 1548
1509 1510 1494 1490 1494 1502 1507 1516 1541 1553 1557 1550 1537 1537 1519 1502 1499 1500 1502 1504 1508 1511 1514 1517 1519 1522 1524 1527 1530 1532 1534 1536 1539 1540 1542 1543 1544 1544 1545 1545 1546 1546 1546 1546
1510 1509 1492 1489 1489 1495 1507 1516 1518 1538 1544 1548 1542 1530 1511 1500 1499 1499 1500 1502 1505 1508 1511 1514 1517 1519 1522 1525 1527 1529 1532 1534 1536 1538 1540 1541 1542 1543 1543 1544 1544 1544 1545 1545
1498 1506 1495 1491 1490 1495 1499 1510 1525 1538 1552 1553 1540 1532 1523 1506 1501 1499 1500 1501 1503 1506 1509 1512 1514 1517 1520 1522 1525 1527 1530 1532 1534 1536 1538 1539 1540 1541 1542 1542 1542 1543 1543 1544
1493 1505 1502 1496 1498 1502 1505 1512 1523 1536 1538 1551 1550 1535 1503 1500 1497 1497 1497 1498 1501 1503 1506 1510 1512 1515 1518 1520 1523 1525 1528 1530 1532 1534 1536 1538 1539 1540 1540 1541 1541 1542 1542 1543
1494 1506 1513 1504 1495 1493 1496 1505 1517 1529 1537 1542 1543 1530 1493 1492 1492 1493 1494 1497 1499 1502 1505 1508 1510 1513 1516 1518 1521 1523 1526 1528 1530 1533 1535 1536 1538 1538 1539 1539 1540 1540 1541 1542
1493 1506 1519 1516 1510 1500 1500 1504 1509 1519 1532 1542 1540 1523 1492 1490 1490 1491 1493 1495 1498 1501 1504 1506 1509 1511 1514 1517 1519 1522 1524 1527 1529 1531 1533 1535 1536 1537 1538 1538 1539 1540 1540 1541
1488 1503 1512 1518 1512 1504 1503 1504 1507 1514 1528 1533 1526 1512 1497 1492 1491 1490 1492 1494 1496 1499 1502 1504 1507 1510 1512 1515 1518 1520 1523 1526 1528 1530 1532 1534 1535 1536 1537 1538 1539 1539 1540 1541
1488 1501 1501 1500 1496 1497 1496 1499 1502 1505 1510 1517 1510 1506 1495 1489 1488 1488 1490 1492 1494 1497 1500 1502 1505 1508 1511 1514 1516 1519 1521 1524 1527 1529 1531 1533 1535 1536 1537 1538 1538 1539 1540 1541
1491 1499 1499 1499 1495 1494 1494 1493 1496 1496 1499 1502 1500 1498 1485 1485 1486 1487 1488 1490 1492 1494 1497 1500 1503 1505 1508 1511 1514 1517 1520 1523 1525 1528 1530 1532 1534 1536 1537 1538 1538 1539 1540 1541
1496 1500 1506 1508 1499 1495 1501 1491 1491 1491 1490 1493 1497 1490 1484 1484 1483 1484 1485 1487 1489 1491 1494 1497 1500 1503 1506 1509 1512 1515 1518 1521 1524 1526 1529 1531 1534 1535 1537 1538 1539 1540 1541 1542
1494 1501 1509 1511 1505 1512 1495 1481 1482 1484 1484 1484 1482 1481 1480 1479 1479 1481 1482 1484 1487 1490 1493 1495 1498 1501 1504 1508 1511 1515 1518 1520 1523 1525 1528 1530 1532 1535 1537 1538 1539 1540 1542 1542
1486 1496 1508 1514 1513 1504 1488 1480 1480 1484 1484 1480 1480 1479 1479 1478 1479 1480 1481 1483 1485 1487 1490 1493 1496 1500 1503 1507 1510 1513 1517 1520 1522 1525 1527 1529 1532 1534 1536 1538 1540 1541 1542 1543
1487 1491 1503 1510 1509 1509 1490 1476 1474 1479 1486 1477 1476 1477 1477 1478 1484 1479 1478 1480 1482 1485 1488 1491 1494 1498 1502 1505 1508 1512 1515 1518 1521 1524 1527 1529 1532 1534 1535 1538 1540 1541 1543 1544
1494 1497 1502 1505 1504 1496 1480 1475 1474 1489 1486 1474 1473 1473 1474 1474 1474 1473 1475 1477 1480 1482 1485 1489 1492 1496 1499 1503 1506 1510 1513 1517 1520 1524 1526 1529 1531 1533 1535 1537 1539 1540 1542 1543
1493 1497 1501 1503 1503 1497 1476 1475 1479 1478 1472 1471 1470 1470 1471 1471 1471 1471 1472 1475 1477 1480 1483 1486 1490 1494 1498 1501 1505 1508 1511 1516 1519 1522 1525 1528 1530 1532 1534 1536 1538 1540 1542 1543
1488 1488 1489 1490 1489 1478 1475 1475 1474 1473 1471 1469 1468 1468 1469 1469 1469 1470 1471 1473 1476 1479 1481 1485 1488 1491 1495 1500 1504 1507 1511 1514 1517 1520 1524 1526 1529 1531 1533 1535 1537 1539 1541 1543
1483 1482 1484 1483 1478 1474 1473 1472 1471 1471 1470 1468 1467 1466 1467 1467 1467 1468 1470 1472 1474 1477 1480 1483 1486 1490 1494 1498 1502 1506 1510 1513 1516 1519 1522 1525 1527 1530 1531 1534 1536 1538 1540 1542
1481 1481 1481 1480 1476 1473 1470 1470 1470 1468 1467 1466 1465 1465 1465 1466 1467 1467 1468 1470 1473 1476 1479 1481 1485 1488 1492 1497 1501 1505 1508 1511 1514 1517 1520 1523 1526 1528 1530 1533 1535 1536 1539 1541
1478 1478 1480 1478 1474 1474 1471 1470 1469 1468 1466 1465 1464 1464 1465 1466 1466 1467 1468 1470 1472 1475 1478 1481 1484 1488 1492 1495 1499 1503 1506 1510 1512 1515 1518 1521 1524 1527 1529 1532 1534 1536 1538 1541